Chicago, IL

8:10 AM CDT on June 25, 2017 (GMT -0500)
Chicago-O'Hare International

Weather History for KORD - April, 2014

Change the Weather History Date:

Wednesday, April 2, 2014

  Actual Average Record
Temperature  
Mean Temperature 40 °F 44 °F  
Max Temperature 45 °F 54 °F 82 °F (1963)
Min Temperature 34 °F 34 °F 18 °F (1899)
Degree Days  
Heating Degree Days 25 21  
Month to date heating degree days 45 43  
Since 1 July heating degree days 6485 5618  
Cooling Degree Days 0 0  
Month to date cooling degree days 0 0  
Year to date cooling degree days 0 1  
Moisture  
Dew Point 26 °F    
Average Humidity 60    
Maximum Humidity 70    
Minimum Humidity 49    
Precipitation  
Precipitation T in 0.11 in 1.64 in (1983)
Month to date precipitation T 0.21  
Year to date precipitation 7.01 6.23  
Snow  
Snow 0.00 in 0.10 in 9.40 in (1975)
Month to date snowfall 0.0 0.2  
Since 1 July snowfall 80.6 35.3  
Snow Depth 0.00 in    
Sea Level Pressure  
Sea Level Pressure 30.12 in    
Wind  
Wind Speed 10 mph (NE)    
Max Wind Speed 17 mph    
Max Gust Speed 29 mph    
Visibility 10 miles    
Events Rain    
T = Trace of Precipitation, MM = Missing Value Source: NWS Daily Summary

Daily Weather History Graph

Daily Weather History Graph

Search for Another Location

Airport or City:

Trip Planner

Search our weather history database for the weather conditions in past years. The results will help you decide how hot, cold, wet, or windy it might be!

Date:

Astronomy

Apr. 02, 2014 Rise Set
Actual Time 6:32 AM CDT 7:18 PM CDT
Civil Twilight 6:04 AM CDT 7:46 PM CDT
Nautical Twilight 5:30 AM CDT 8:20 PM CDT
Astronomical Twilight 4:56 AM CDT 8:54 PM CDT
Moon 8:14 AM CDT (4/2) 10:44 PM CDT (4/2)
Length of Visible Light 13h 42m
Length of Day
12h 45m
Waxing Crescent, 10% of the Moon is Illuminated
Apr 2
Waxing Crescent
Apr 7
First Quarter
Apr 15
Full
Apr 22
Last Quarter
Apr 29
New

Hourly Weather History & Observations

Time (CDT) Temp. Windchill Dew Point Humidity Pressure Visibility Wind Dir Wind Speed Gust Speed Precip Events Conditions
12:51 AM 43.0 °F 37.7 °F 28.9 °F 58% 30.09 in 10.0 mi West 9.2 mph - N/A   Overcast
1:51 AM 42.1 °F 35.7 °F 28.0 °F 58% 30.07 in 10.0 mi NNW 11.5 mph - 0.00 in Rain Light Rain
2:51 AM 41.0 °F 37.1 °F 28.0 °F 60% 30.09 in 10.0 mi North 5.8 mph - 0.00 in   Overcast
3:51 AM 39.0 °F 34.0 °F 26.1 °F 60% 30.08 in 10.0 mi North 6.9 mph - N/A   Mostly Cloudy
4:51 AM 37.0 °F 32.4 °F 25.0 °F 62% 30.10 in 10.0 mi North 5.8 mph - N/A   Scattered Clouds
5:51 AM 35.1 °F 28.6 °F 25.0 °F 67% 30.12 in 10.0 mi North 8.1 mph - N/A   Partly Cloudy
7:51 AM 37.0 °F 33.3 °F 25.0 °F 62% 30.16 in 10.0 mi NNE 4.6 mph - N/A   Scattered Clouds
8:51 AM 37.9 °F 32.1 °F 25.0 °F 60% 30.17 in 10.0 mi NE 8.1 mph - N/A   Mostly Cloudy
9:51 AM 39.9 °F 33.9 °F 25.0 °F 55% 30.17 in 10.0 mi ENE 9.2 mph - N/A   Mostly Cloudy
10:51 AM 42.1 °F 36.1 °F 25.0 °F 51% 30.17 in 10.0 mi NE 10.4 mph - N/A   Scattered Clouds
11:51 AM 44.1 °F 39.5 °F 26.1 °F 49% 30.17 in 10.0 mi NE 8.1 mph - N/A   Mostly Cloudy
12:51 PM 44.6 °F 38.8 °F 26.6 °F 49% 30.15 in 10.0 mi NE 11.5 mph - N/A   Mostly Cloudy
1:51 PM 42.1 °F 36.6 °F 27.0 °F 55% 30.17 in 10.0 mi ENE 9.2 mph - N/A   Overcast
2:51 PM 43.0 °F 36.8 °F 27.0 °F 53% 30.14 in 10.0 mi ENE 11.5 mph - N/A   Mostly Cloudy
3:51 PM 43.0 °F 36.0 °F 26.1 °F 51% 30.12 in 10.0 mi ENE 13.8 mph - N/A   Mostly Cloudy
4:51 PM 39.9 °F 32.5 °F 25.0 °F 55% 30.13 in 10.0 mi ENE 12.7 mph - N/A   Overcast
5:51 PM 37.9 °F 30.0 °F 24.1 °F 57% 30.12 in 10.0 mi NE 12.7 mph - N/A   Overcast
6:51 PM 36.0 °F 26.7 °F 24.1 °F 62% 30.09 in 10.0 mi NE 15.0 mph - N/A   Overcast
7:51 PM 35.1 °F 26.4 °F 24.1 °F 64% 30.12 in 10.0 mi NE 12.7 mph - N/A   Overcast
8:51 PM 35.1 °F 25.9 °F 25.0 °F 67% 30.12 in 10.0 mi NE 13.8 mph - N/A   Overcast
9:51 PM 35.1 °F 25.5 °F 26.1 °F 70% 30.10 in 10.0 mi NE 15.0 mph - 0.00 in   Overcast
10:51 PM 36.0 °F 27.1 °F 26.1 °F 67% 30.10 in 10.0 mi NE 13.8 mph - N/A   Overcast
11:51 PM 37.9 °F 30.5 °F 27.0 °F 65% 30.05 in 10.0 mi NE 11.5 mph 21.9 mph N/A   Overcast